Tracking 19192 objects as of 22-Jun-2018
HD Live streaming from Space Station
objects crossing your sky now

FENGYUN 1C DEB

Track FENGYUN 1C DEB now!
10-day predictions


NORAD ID: 31169
Int'l Code: 1999-025BHX
Perigee: 825.3 km
Apogee: 937.0 km
Inclination: 99.0 °
Period: 102.4 minutes
Semi major axis: 7252 km
RCS: 0.0093 m2 (small)
Launch date: May 10, 1999
Source: People's Republic of China (PRC)
Launch site: Taiyaun Space Center, China (TSC)

Note: This is SATELLITE DEBRIS
aabbcc
Your satellite tracking list
Your tracking list is empty




NASA's NSSDC Master Catalog

Two Line Element Set (TLE):
1 31169U 99025BHX 18169.78057976 +.00001046 +00000-0 +65045-3 0  9993
2 31169 099.0418 115.1311 0077026 125.2417 235.5991 14.05731417574339
Source of the keplerian elements: AFSPC